CW2014 Weather Reports


time (UTC)temp
F
wind
direction
speed
knots
gust
knots
rain 1hr
in
rain 24hr
in
rain mn
in
humidity
%
barometer
mb
20260506051026 67 285 0.9 3.5 0.00 0.07 0.07 35 1010.8
20260506050525 67 279 1.7 3.5 0.00 0.07 0.07 34 1010.7
20260506045025 68 282 1.7 3.5 0.00 0.07 0.07 33 1010.4
20260506044542 68 252 0.9 3.5 0.00 0.07 0.07 33 1010.4
20260506044025 68 276 0.9 3.5 0.00 0.07 0.07 32 1010.4
20260506043525 68 280 1.7 3.5 0.00 0.07 0.07 32 1010.4
20260506043040 68 290 1.7 3.5 0.00 0.07 0.07 32 1010.3
20260506042525 68 281 1.7 3.5 0.00 0.07 0.07 32 1010.4
20260506042025 69 288 1.7 3.5 0.00 0.07 0.07 32 1010.2
20260506041541 69 278 0.9 3.5 0.00 0.07 0.07 31 1010.2
20260506041025 69 289 1.7 3.5 0.00 0.07 0.07 31 1010.2
20260506040524 69 288 0.9 2.6 0.00 0.07 0.07 31 1010.1
20260506040041 69 288 0.9 5.2 0.00 0.07 0.07 30 1010.0
20260506035525 70 312 0.9 5.2 0.00 0.07 0.07 30 1009.9
20260506035023 70 277 1.7 6.1 0.00 0.07 0.07 30 1009.8
20260506034539 70 275 1.7 7.8 0.00 0.07 0.07 30 1009.8
20260506034025 70 296 2.6 7.8 0.00 0.07 0.07 29 1009.7
20260506033525 70 296 3.5 7.0 0.00 0.07 0.07 29 1009.7
20260506033043 70 310 2.6 7.8 0.00 0.07 0.07 29 1009.5
20260506032524 70 0 3.5 7.8 0.00 0.07 0.07 29 1009.5
20260506032025 70 299 2.6 5.2 0.00 0.07 0.07 29 1009.5
20260506031546 71 299 2.6 8.7 0.00 0.07 0.07 29 1009.3
20260506031025 71 300 2.6 8.7 0.00 0.07 0.07 29 1009.3
20260506030524 71 302 4.3 8.7 0.00 0.07 0.07 28 1009.1
20260506030040 71 290 2.6 8.7 0.00 0.07 0.07 28 1009.1
20260506025526 71 285 4.3 8.7 0.00 0.07 0.07 28 1009.0
20260506025028 71 285 3.5 7.8 0.00 0.07 0.07 28 1009.0
20260506024547 71 317 3.5 9.6 0.00 0.07 0.07 28 1008.9
20260506024024 72 278 4.3 9.6 0.00 0.07 0.07 27 1008.8
20260506023524 72 275 2.6 8.7 0.00 0.07 0.07 27 1008.8
20260506023044 72 281 3.5 8.7 0.00 0.07 0.07 27 1008.8
20260506022530 72 273 3.5 10.4 0.00 0.07 0.07 27 1008.7
20260506022025 72 272 5.2 10.4 0.00 0.07 0.07 26 1008.5
20260506021541 72 283 5.2 10.4 0.00 0.07 0.07 26 1008.5
20260506021026 73 288 6.1 11.3 0.00 0.07 0.07 26 1008.5
20260506020525 73 290 5.2 11.3 0.00 0.07 0.07 27 1008.3
20260506020039 73 309 4.3 9.6 0.00 0.07 0.07 26 1008.2
20260506015527 73 311 5.2 9.6 0.00 0.07 0.07 26 1008.2
20260506015025 74 284 4.3 9.6 0.00 0.07 0.07 26 1008.1
20260506014542 74 239 3.5 12.2 0.00 0.07 0.07 26 1008.2
20260506014024 74 263 4.3 12.2 0.00 0.07 0.07 26 1008.2
20260506013527 74 248 3.5 12.2 0.00 0.07 0.07 26 1008.1
20260506013038 74 286 5.2 12.2 0.00 0.07 0.07 26 1008.0
20260506012524 74 307 4.3 12.2 0.00 0.07 0.07 27 1008.0
20260506012028 74 276 4.3 12.2 0.00 0.07 0.07 27 1008.0
20260506011544 74 309 5.2 13.0 0.00 0.07 0.07 27 1008.0
20260506011025 74 323 6.1 13.0 0.00 0.07 0.07 27 1007.9
20260506010525 74 342 1.7 10.4 0.00 0.07 0.07 28 1007.9
20260506010041 74 286 5.2 12.2 0.00 0.07 0.07 27 1007.9
20260506005525 74 319 5.2 12.2 0.00 0.07 0.07 27 1007.9
20260506005024 74 270 4.3 11.3 0.00 0.07 0.07 27 1007.7
20260506004540 75 317 6.1 11.3 0.00 0.07 0.07 27 1007.7
20260506004028 75 240 4.3 11.3 0.00 0.07 0.07 27 1007.7
20260506003526 75 290 6.1 11.3 0.00 0.07 0.07 27 1007.7
20260506003040 76 275 4.3 11.3 0.00 0.07 0.07 26 1007.7
20260506002525 76 268 4.3 11.3 0.00 0.07 0.07 27 1007.7
20260506002025 76 264 4.3 13.9 0.00 0.07 0.07 27 1007.6
20260506001549 75 304 5.2 13.9 0.00 0.07 0.07 27 1007.6
20260506001024 75 304 7.8 14.8 0.00 0.07 0.07 27 1007.6
20260506000525 75 302 5.2 14.8 0.00 0.07 0.07 27 1007.5
20260506000042 76 305 6.1 14.8 0.00 0.07 0.07 26 1007.5
20260505235525 76 270 4.3 13.0 0.00 0.07 0.07 26 1007.4
20260505235025 76 277 7.0 13.9 0.00 0.07 0.07 27 1007.6
20260505234544 76 294 6.1 13.9 0.00 0.07 0.07 27 1007.4
20260505234025 76 290 7.8 13.0 0.00 0.07 0.07 26 1007.4
20260505233525 76 292 3.5 14.8 0.00 0.07 0.07 27 1007.3
20260505233038 77 305 5.2 14.8 0.00 0.07 0.07 27 1007.4
20260505232524 77 258 7.0 14.8 0.00 0.07 0.07 27 1007.4
20260505232024 77 300 4.3 14.8 0.00 0.07 0.07 26 1007.3
20260505231550 77 234 5.2 14.8 0.00 0.07 0.07 27 1007.3
20260505231025 77 261 7.0 14.8 0.00 0.07 0.07 27 1007.4
20260505230525 77 346 6.1 13.9 0.00 0.07 0.07 26 1007.3
20260505230054 77 286 6.1 13.9 0.00 0.07 0.07 27 1007.4
20260505225526 76 235 4.3 13.9 0.00 0.07 0.07 27 1007.3
20260505225025 77 321 5.2 13.9 0.00 0.07 0.07 27 1007.5
20260505224540 78 257 5.2 13.0 0.00 0.07 0.07 28 1007.6
20260505224025 78 232 5.2 12.2 0.00 0.07 0.07 27 1007.4
20260505223524 78 299 6.1 12.2 0.00 0.07 0.07 27 1007.6
20260505223039 78 261 2.6 13.9 0.00 0.07 0.07 26 1007.5
20260505222525 78 321 6.1 13.9 0.00 0.07 0.07 27 1007.7
20260505222025 78 246 4.3 13.0 0.00 0.07 0.07 28 1007.7
20260505221539 77 265 4.3 12.2 0.00 0.07 0.07 27 1007.7
20260505221030 78 290 7.0 12.2 0.00 0.07 0.07 27 1008.0
20260505220524 78 288 2.6 15.6 0.00 0.07 0.07 28 1007.8
20260505220046 78 244 6.1 15.6 0.00 0.07 0.07 27 1008.0
20260505215529 78 287 5.2 13.9 0.00 0.07 0.07 28 1008.0
20260505215025 78 268 5.2 13.9 0.00 0.07 0.07 27 1007.9
20260505214544 78 257 5.2 13.9 0.00 0.07 0.07 28 1008.1
20260505214025 78 288 5.2 16.5 0.00 0.07 0.07 29 1008.1
20260505213524 78 231 7.0 16.5 0.00 0.07 0.07 29 1008.2
20260505213051 77 242 2.6 13.9 0.00 0.07 0.07 31 1008.1
20260505212529 77 316 4.3 13.9 0.00 0.07 0.07 30 1008.2
20260505212025 76 244 3.5 14.8 0.00 0.07 0.07 31 1008.2
20260505211539 76 228 4.3 14.8 0.00 0.07 0.07 31 1008.5
20260505211025 77 205 5.2 12.2 0.00 0.07 0.07 31 1008.5
20260505210524 77 266 4.3 12.2 0.00 0.07 0.07 32 1008.6
20260505210038 76 265 6.1 12.2 0.00 0.07 0.07 33 1008.6
20260505205525 76 306 4.3 10.4 0.00 0.07 0.07 33 1008.6
20260505205028 76 278 1.7 12.2 0.00 0.07 0.07 34 1008.6
20260505204539 76 270 3.5 13.0 0.00 0.07 0.07 34 1008.7
20260505204024 76 284 7.0 13.0 0.00 0.07 0.07 33 1008.8
20260505203526 76 223 5.2 13.0 0.00 0.07 0.07 34 1008.8
20260505203042 76 324 7.0 13.0 0.00 0.07 0.07 33 1008.8
20260505202524 76 261 4.3 12.2 0.00 0.07 0.07 34 1008.8
20260505202023 76 241 5.2 12.2 0.00 0.07 0.07 36 1008.8
20260505201543 75 317 5.2 12.2 0.00 0.07 0.07 38 1008.8
20260505201025 75 304 5.2 13.0 0.00 0.07 0.07 38 1008.8
20260505200527 75 296 5.2 13.0 0.00 0.07 0.07 38 1009.0
20260505200043 75 296 3.5 12.2 0.00 0.07 0.07 39 1008.9
20260505195528 75 262 2.6 11.3 0.00 0.07 0.07 39 1009.0
20260505195024 75 302 6.1 13.0 0.00 0.07 0.07 39 1009.1
20260505194539 75 247 3.5 13.0 0.00 0.07 0.07 40 1009.1
20260505194025 74 261 3.5 9.6 0.00 0.07 0.07 41 1009.1
20260505193525 74 223 3.5 11.3 0.00 0.07 0.07 40 1009.1
20260505193039 74 255 5.2 13.0 0.00 0.07 0.07 40 1009.2
20260505192528 73 272 7.0 13.0 0.00 0.07 0.07 41 1009.3
20260505192025 73 240 2.6 9.6 0.00 0.07 0.07 41 1009.4
20260505191606 73 236 3.5 9.6 0.00 0.07 0.07 41 1009.5
20260505191027 74 257 3.5 9.6 0.00 0.07 0.07 41 1009.6
20260505190525 74 247 2.6 9.6 0.00 0.07 0.07 40 1009.5
20260505190042 73 254 1.7 14.8 0.00 0.07 0.07 41 1009.6
20260505185524 74 256 6.1 14.8 0.00 0.07 0.07 41 1009.7
20260505185025 74 275 5.2 11.3 0.00 0.07 0.07 42 1009.7
20260505184539 73 352 5.2 11.3 0.00 0.07 0.07 42 1009.7
20260505184025 74 301 4.3 10.4 0.00 0.07 0.07 42 1009.7
20260505183524 74 225 4.3 9.6 0.00 0.07 0.07 41 1009.7
20260505183040 73 285 5.2 12.2 0.00 0.07 0.07 42 1009.8
20260505182525 73 281 7.0 12.2 0.00 0.07 0.07 43 1009.9
20260505182024 73 246 3.5 9.6 0.00 0.07 0.07 43 1009.8
20260505181535 72 199 2.6 10.4 0.00 0.07 0.07 45 1009.8
20260505181026 72 294 4.3 10.4 0.00 0.07 0.07 45 1009.7
20260505180525 73 224 5.2 12.2 0.00 0.07 0.07 43 1009.8
20260505180059 73 224 6.1 12.2 0.00 0.07 0.07 44 1009.9
20260505175525 72 266 5.2 12.2 0.00 0.07 0.07 45 1009.7
20260505175026 72 275 3.5 9.6 0.00 0.07 0.07 46 1009.8
20260505174551 72 194 1.7 9.6 0.00 0.07 0.07 48 1009.9
20260505174025 71 251 3.5 7.8 0.00 0.07 0.07 49 1009.9
20260505173527 71 167 3.5 7.8 0.00 0.07 0.07 50 1009.9
20260505173041 71 184 2.6 9.6 0.00 0.07 0.07 50 1009.9
20260505172525 71 242 2.6 9.6 0.00 0.07 0.07 51 1009.9
20260505172025 71 234 3.5 8.7 0.00 0.07 0.07 52 1009.9
20260505171539 70 232 3.5 9.6 0.00 0.07 0.07 52 1009.9
20260505171025 70 267 3.5 9.6 0.00 0.07 0.07 53 1009.9
20260505170525 70 210 2.6 7.0 0.00 0.07 0.07 54 1009.9
20260505170039 69 226 1.7 10.4 0.00 0.07 0.07 54 1009.9
20260505165525 70 249 4.3 10.4 0.00 0.07 0.07 54 1009.9
20260505165025 70 217 2.6 8.7 0.00 0.07 0.07 54 1009.9
20260505164549 70 233 3.5 7.8 0.00 0.07 0.07 54 1009.9
20260505164029 70 196 4.3 10.4 0.00 0.07 0.07 54 1009.9
20260505163525 70 208 2.6 10.4 0.00 0.07 0.07 54 1009.8
20260505163040 70 277 5.2 10.4 0.00 0.07 0.07 53 1009.8
20260505162525 71 323 3.5 9.6 0.00 0.07 0.07 54 1009.9
20260505162025 71 248 2.6 8.7 0.00 0.07 0.07 54 1009.8
20260505161540 70 268 3.5 9.6 0.00 0.07 0.07 55 1009.8
20260505161025 69 263 4.3 10.4 0.00 0.07 0.07 56 1009.9
20260505160525 69 180 6.1 10.4 0.00 0.07 0.07 56 1010.0
20260505153045 69 0 1.7 7.0 0.00 0.07 0.07 60 1009.7
20260505152525 69 252 2.6 7.0 0.00 0.07 0.07 61 1009.7
20260505152025 69 209 1.7 7.0 0.00 0.07 0.07 62 1009.7
20260505151543 68 238 1.7 7.0 0.00 0.07 0.07 64 1009.7
20260505151026 67 200 2.6 7.0 0.00 0.07 0.07 65 1009.7
20260505150525 67 192 2.6 7.0 0.00 0.07 0.07 66 1009.7
20260505140526 63 139 0.0 5.2 0.00 0.07 0.07 81 1009.7
20260505125025 63 193 3.5 6.1 0.00 0.07 0.07 79 1009.0
20260505124545 63 200 1.7 7.0 0.00 0.07 0.07 79 1009.0
20260505124025 63 151 2.6 7.0 0.00 0.07 0.07 79 1009.0
20260505123524 63 144 2.6 6.1 0.00 0.07 0.07 78 1009.0
20260505123040 63 178 3.5 6.1 0.00 0.07 0.07 78 1009.0
20260505122524 63 183 2.6 6.1 0.00 0.07 0.07 77 1008.8
20260505122025 63 196 2.6 6.1 0.00 0.07 0.07 77 1008.8
20260505121539 63 167 2.6 6.1 0.00 0.07 0.07 77 1008.8
20260505121025 62 171 2.6 5.2 0.00 0.07 0.07 79 1008.7
20260505120524 62 140 0.9 3.5 0.00 0.07 0.07 80 1008.7
20260505120039 62 163 1.7 5.2 0.00 0.07 0.07 80 1008.7
20260505115524 62 158 0.9 5.2 0.00 0.07 0.07 80 1008.8
20260505115024 62 140 2.6 5.2 0.00 0.07 0.07 79 1008.8
20260505114540 62 164 1.7 6.1 0.00 0.07 0.07 79 1008.7
20260505114028 62 140 1.7 7.0 0.00 0.07 0.07 79 1008.7
20260505113524 62 194 3.5 7.8 0.00 0.07 0.07 79 1008.6
20260505113050 62 160 3.5 7.8 0.00 0.07 0.07 78 1008.5
20260505112526 62 170 3.5 8.7 0.00 0.07 0.07 78 1008.6
20260505112024 62 165 3.5 8.7 0.00 0.07 0.07 78 1008.7
20260505111540 62 186 2.6 7.8 0.00 0.07 0.07 78 1008.7
20260505111026 62 144 3.5 8.7 0.00 0.07 0.07 78 1008.7
20260505110528 62 183 3.5 9.6 0.00 0.07 0.07 79 1008.8
20260505102025 62 171 4.3 8.7 0.00 0.07 0.07 77 1009.6
20260505101555 63 186 3.5 7.8 0.00 0.07 0.07 77 1009.6
20260505101025 63 163 3.5 7.8 0.00 0.07 0.07 77 1009.6
20260505100525 63 184 2.6 7.0 0.00 0.07 0.07 77 1009.6
20260505100058 62 193 2.6 7.0 0.00 0.07 0.07 78 1009.8
20260505095527 62 170 3.5 7.0 0.00 0.07 0.07 78 1009.8
20260505095025 62 169 3.5 7.0 0.00 0.07 0.07 79 1009.9
20260505094541 62 195 3.5 7.0 0.00 0.07 0.07 80 1009.8
20260505094025 62 193 3.5 7.0 0.01 0.07 0.07 81 1009.8
20260505093525 62 184 3.5 6.1 0.01 0.07 0.07 82 1009.7
20260505093040 61 126 2.6 5.2 0.02 0.07 0.07 82 1009.8
20260505092525 61 199 1.7 6.1 0.03 0.07 0.07 83 1009.8
20260505092024 61 182 1.7 6.1 0.04 0.07 0.07 84 1009.9
20260505091539 61 157 2.6 7.0 0.04 0.07 0.07 84 1009.9
20260505091025 61 140 2.6 7.0 0.05 0.07 0.07 85 1010.1
20260505090524 61 180 3.5 7.0 0.05 0.07 0.07 86 1010.0
20260505090044 61 121 1.7 5.2 0.05 0.07 0.07 85 1010.3
20260505085524 61 144 1.7 4.3 0.05 0.07 0.07 85 1010.1
20260505085024 61 146 1.7 6.1 0.05 0.07 0.07 84 1010.3
20260505084541 61 146 1.7 6.1 0.05 0.07 0.07 84 1010.4
20260505084024 61 180 2.6 8.7 0.05 0.06 0.06 83 1010.6
20260505083526 61 159 2.6 10.4 0.05 0.05 0.05 83 1010.7
20260505083040 61 207 3.5 11.3 0.05 0.05 0.05 82 1010.7
20260505082525 61 173 6.1 14.8 0.04 0.04 0.04 80 1011.1
20260505082025 61 162 5.2 14.8 0.03 0.03 0.03 80 1011.0
20260505081546 61 198 6.1 13.9 0.03 0.03 0.03 79 1010.9
20260505081025 61 173 5.2 13.0 0.02 0.02 0.02 79 1010.7
20260505080525 62 171 4.3 12.2 0.02 0.02 0.02 79 1010.6
20260505080047 62 173 5.2 17.4 0.02 0.02 0.02 77 1010.7
20260505075525 62 157 7.8 17.4 0.02 0.02 0.02 75 1010.8
20260505075024 63 145 5.2 12.2 0.02 0.02 0.02 73 1010.7
20260505074535 63 165 6.1 13.0 0.02 0.02 0.02 71 1010.8
20260505074024 64 147 6.1 13.0 0.01 0.01 0.01 67 1010.7
20260505073524 66 169 5.2 10.4 0.00 0.00 0.00 63 1010.7
20260505073043 67 167 4.3 9.6 0.00 0.00 0.00 57 1010.8
20260505072525 68 194 3.5 10.4 0.00 0.00 0.00 55 1010.6
20260505072025 68 191 6.1 10.4 0.00 0.00 0.00 51 1010.6
20260505071550 68 205 5.2 10.4 0.00 0.00 0.00 50 1010.6
20260505071025 69 232 4.3 7.8 0.00 0.00 0.00 48 1010.4
20260505070526 68 216 3.5 7.0 0.00 0.00 0.00 47 1010.4
20260505070040 68 188 2.6 8.7 0.00 0.00 0.00 48 1010.5
20260505065525 68 229 4.3 8.7 0.00 0.00 0.00 48 1010.3
20260505065025 69 194 4.3 8.7 0.00 0.00 0.00 47 1010.3
20260505064538 69 216 3.5 10.4 0.00 0.00 0.00 47 1010.1
20260505064024 69 204 3.5 11.3 0.00 0.00 0.00 46 1009.9
20260505063524 69 203 6.1 11.3 0.00 0.00 0.00 46 1009.9
20260505063047 69 148 3.5 12.2 0.00 0.00 0.00 45 1009.8
20260505062524 69 171 4.3 13.9 0.00 0.00 0.00 45 1009.9
20260505062025 69 171 7.0 14.8 0.00 0.00 0.00 44 1009.8
20260505061545 70 144 5.2 14.8 0.00 0.00 0.00 42 1009.8
20260505061026 70 183 5.2 13.0 0.00 0.00 0.00 40 1009.9
20260505060525 70 152 5.2 13.0 0.00 0.00 0.00 38 1009.8
20260505060043 71 171 5.2 12.2 0.00 0.00 0.00 36 1009.8
20260505055525 71 201 2.6 11.3 0.00 0.00 0.00 34 1009.8
20260505055025 71 212 3.5 11.3 0.00 0.00 0.00 33 1009.9